Change the Weather History Date:

Sunday, February 24, 2013

  Actual Average (KHEF) Record (KHEF)
Temperature  
Mean Temperature 46 °F -  
Max Temperature 58 °F 47 °F 59 °F (2012)
Min Temperature 34 °F 25 °F 1 °F (2015)
Degree Days  
Heating Degree Days 19    
Moisture  
Dew Point 36 °F    
Average Humidity 74    
Maximum Humidity 100    
Minimum Humidity 39    
Precipitation  
Precipitation 0.00 in - - ()
Sea Level Pressure  
Sea Level Pressure 29.91 in    
Wind  
Wind Speed 7 mph (NNW)    
Max Wind Speed 22 mph    
Max Gust Speed 32 mph    
Visibility 8 miles    
Events Fog    
Averages and records for this station are not official NWS values.
T = Trace of Precipitation, MM = Missing Value Source: NWS Daily Summary

Daily Weather History Graph

Daily Weather History Graph

Search for Another Location

Airport or City:

Trip Planner

Search our weather history database for the weather conditions in past years. The results will help you decide how hot, cold, wet, or windy it might be!

Date:

Astronomy

Feb. 24, 2013 Rise Set
Actual Time 6:49 AM EST 5:58 PM EST
Civil Twilight 6:22 AM EST 6:25 PM EST
Nautical Twilight 5:52 AM EST 6:56 PM EST
Astronomical Twilight 5:21 AM EST 7:27 PM EST
Moon 5:07 PM EST (2/24) 5:45 AM EST (2/24)
Length of Visible Light 12h 02m
Length of Day
11h 09m
Waxing Gibbous, 99% of the Moon is Illuminated
Feb 24
Waxing Gibbous
Feb 25
Full
Mar 4
Last Quarter
Mar 11
New
Mar 19
First Quarter

Hourly Weather History & Observations

Time (EST) Temp. Windchill Dew Point Humidity Pressure Visibility Wind Dir Wind Speed Gust Speed Precip Events Conditions
12:15 AM 43.9 °F 42.3 °F 43.9 °F 100% 29.82 in 5.0 mi NNW 3.5 mph - N/A   Overcast
12:35 AM 43.7 °F 41.1 °F 43.7 °F 100% 29.83 in 5.0 mi NNW 4.6 mph - N/A   Overcast
12:55 AM 43.7 °F 42.1 °F 43.7 °F 100% 29.83 in 5.0 mi North 3.5 mph - N/A   Overcast
1:15 AM 43.7 °F 41.1 °F 43.7 °F 100% 29.83 in 7.0 mi North 4.6 mph - N/A   Overcast
1:35 AM 43.7 °F 40.3 °F 43.7 °F 100% 29.83 in 7.0 mi North 5.8 mph - N/A   Overcast
1:55 AM 43.5 °F 40.9 °F 43.5 °F 100% 29.83 in 7.0 mi NNW 4.6 mph - N/A   Overcast
2:15 AM 43.3 °F 39.2 °F 43.3 °F 100% 29.83 in 7.0 mi North 6.9 mph - N/A   Overcast
2:35 AM 43.3 °F 39.2 °F 43.3 °F 100% 29.82 in 7.0 mi North 6.9 mph - N/A   Overcast
2:55 AM 43.2 °F 40.5 °F 43.2 °F 100% 29.82 in 7.0 mi North 4.6 mph - N/A   Overcast
3:15 AM 43.0 °F 41.3 °F 43.0 °F 100% 29.82 in 5.0 mi North 3.5 mph - N/A   Overcast
3:35 AM 42.8 °F 41.1 °F 42.8 °F 100% 29.81 in 5.0 mi North 3.5 mph - N/A   Overcast
3:55 AM 42.4 °F 40.7 °F 42.4 °F 100% 29.81 in 5.0 mi North 3.5 mph - N/A   Overcast
4:15 AM 42.4 °F 40.7 °F 42.4 °F 100% 29.80 in 5.0 mi NNE 3.5 mph - N/A   Overcast
4:35 AM 42.3 °F 37.9 °F 42.3 °F 100% 29.82 in 7.0 mi North 6.9 mph - N/A   Overcast
4:55 AM 42.3 °F 37.9 °F 42.3 °F 100% 29.82 in 7.0 mi North 6.9 mph - N/A   Overcast
5:15 AM 42.3 °F 40.5 °F 42.3 °F 100% 29.84 in 7.0 mi North 3.5 mph - N/A   Overcast
5:35 AM 41.9 °F - 41.9 °F 100% 29.84 in 7.0 mi Calm Calm - N/A   Overcast
5:55 AM 41.0 °F - 41.0 °F 100% 29.84 in 5.0 mi Calm Calm - N/A   Mostly Cloudy
6:15 AM 41.0 °F - 41.0 °F 100% 29.84 in 5.0 mi Calm Calm - N/A   Mostly Cloudy
6:35 AM 39.0 °F - 39.0 °F 100% 29.84 in 4.0 mi Calm Calm - N/A   Mostly Cloudy
6:55 AM 38.3 °F - 38.3 °F 100% 29.84 in 2.5 mi Calm Calm - N/A   Overcast
7:15 AM 35.4 °F - 35.4 °F 100% 29.85 in 0.5 mi Calm Calm - N/A Fog Fog
7:35 AM 36.3 °F - 36.3 °F 100% 29.85 in 0.5 mi Calm Calm - N/A Fog Fog
7:55 AM 38.3 °F - 38.3 °F 100% 29.86 in 2.0 mi Calm Calm - N/A   Clear
8:15 AM 41.9 °F - 41.9 °F 100% 29.87 in 4.0 mi Calm Calm - N/A   Clear
8:35 AM 44.8 °F 43.3 °F 42.6 °F 92% 29.87 in 7.0 mi NNE 3.5 mph - N/A   Clear
8:55 AM 46.4 °F 44.3 °F 42.3 °F 85% 29.87 in 10.0 mi North 4.6 mph - N/A   Clear
9:15 AM 47.3 °F - 42.3 °F 83% 29.88 in 10.0 mi North 5.8 mph - N/A   Clear
9:35 AM 48.9 °F - 42.6 °F 79% 29.89 in 10.0 mi Calm Calm - N/A   Scattered Clouds
9:55 AM 50.7 °F - 41.7 °F 71% 29.89 in 10.0 mi NW 8.1 mph - N/A   Scattered Clouds
10:15 AM 51.4 °F - 41.9 °F 70% 29.89 in 10.0 mi West 5.8 mph - N/A   Scattered Clouds
10:35 AM 53.1 °F - 43.7 °F 71% 29.89 in 10.0 mi WSW 8.1 mph - N/A   Scattered Clouds
10:55 AM 53.2 °F - 43.2 °F 69% 29.88 in 10.0 mi WSW 6.9 mph - N/A   Scattered Clouds
11:15 AM 55.4 °F - 42.3 °F 61% 29.88 in 10.0 mi West 10.4 mph 16.1 mph N/A   Mostly Cloudy
11:35 AM 52.5 °F - 39.0 °F 60% 29.88 in 10.0 mi WNW 9.2 mph - N/A   Mostly Cloudy
11:55 AM 55.0 °F - 39.2 °F 55% 29.87 in 10.0 mi NNW 9.2 mph 16.1 mph N/A   Mostly Cloudy
12:15 PM 52.5 °F - 37.6 °F 57% 29.87 in 10.0 mi WNW 9.2 mph - N/A   Scattered Clouds
12:35 PM 53.2 °F - 37.6 °F 55% 29.86 in 10.0 mi NW 8.1 mph - N/A   Scattered Clouds
12:55 PM 55.9 °F - 36.7 °F 48% 29.86 in 10.0 mi WNW 5.8 mph - N/A   Scattered Clouds
1:15 PM 55.9 °F - 37.2 °F 49% 29.86 in 10.0 mi NW 10.4 mph - N/A   Scattered Clouds
1:35 PM 55.2 °F - 36.5 °F 49% 29.86 in 10.0 mi NNW 10.4 mph - N/A   Scattered Clouds
1:55 PM 55.4 °F - 35.6 °F 47% 29.85 in 10.0 mi NW 8.1 mph - N/A   Scattered Clouds
2:15 PM 57.7 °F - 35.6 °F 44% 29.85 in 10.0 mi West 9.2 mph - N/A   Scattered Clouds
2:35 PM 57.0 °F - 34.0 °F 42% 29.84 in 10.0 mi SW 3.5 mph - N/A   Scattered Clouds
2:55 PM 57.2 °F - 34.5 °F 43% 29.85 in 10.0 mi WNW 9.2 mph - N/A   Scattered Clouds
3:15 PM 56.3 °F - 33.6 °F 42% 29.85 in 10.0 mi WNW 6.9 mph - N/A   Mostly Cloudy
3:35 PM 58.3 °F - 33.6 °F 39% 29.86 in 10.0 mi West 8.1 mph 17.3 mph N/A   Overcast
3:55 PM 56.8 °F - 33.3 °F 41% 29.87 in 10.0 mi NW 15.0 mph 18.4 mph N/A   Scattered Clouds
4:15 PM 55.2 °F - 32.2 °F 42% 29.88 in 10.0 mi NW 12.7 mph - N/A   Scattered Clouds
4:35 PM 53.1 °F - 31.6 °F 44% 29.89 in 10.0 mi NW 13.8 mph 19.6 mph N/A   Scattered Clouds
4:55 PM 52.9 °F - 30.9 °F 43% 29.90 in 10.0 mi North 11.5 mph 17.3 mph N/A   Clear
5:15 PM 50.0 °F - 31.6 °F 49% 29.92 in 10.0 mi NNW 20.7 mph 25.3 mph N/A   Clear
5:35 PM 46.4 °F 39.0 °F 32.0 °F 57% 29.93 in 10.0 mi North 19.6 mph 27.6 mph N/A   Clear
5:55 PM 43.2 °F 34.5 °F 31.3 °F 63% 29.96 in 10.0 mi NNW 20.7 mph 27.6 mph N/A   Clear
6:15 PM 41.7 °F 32.9 °F 30.4 °F 64% 29.98 in 10.0 mi North 19.6 mph 31.1 mph N/A   Clear
6:35 PM 40.1 °F 31.3 °F 29.7 °F 66% 30.00 in 10.0 mi NNW 17.3 mph 31.1 mph N/A   Clear
6:55 PM 39.6 °F 31.0 °F 29.3 °F 67% 30.01 in 10.0 mi NNW 16.1 mph 27.6 mph N/A   Clear
7:15 PM 39.2 °F 30.5 °F 28.4 °F 65% 30.02 in 10.0 mi NNW 16.1 mph 32.2 mph N/A   Clear
7:35 PM 38.7 °F 28.3 °F 28.4 °F 67% 30.03 in 10.0 mi NNW 21.9 mph 28.8 mph N/A   Clear
7:55 PM 37.9 °F 28.2 °F 28.4 °F 69% 30.04 in 10.0 mi NNW 18.4 mph 23.0 mph N/A   Clear
8:15 PM 37.6 °F 28.8 °F 28.4 °F 69% 30.06 in 10.0 mi NNW 15.0 mph 28.8 mph N/A   Clear
8:35 PM 37.4 °F 26.9 °F 28.0 °F 69% 30.07 in 10.0 mi NNW 20.7 mph 29.9 mph N/A   Clear
8:55 PM 37.4 °F 26.6 °F 27.7 °F 68% 30.07 in 10.0 mi NNW 21.9 mph 28.8 mph N/A   Clear
9:15 PM 37.0 °F 26.4 °F 27.3 °F 68% 30.08 in 10.0 mi NNW 20.7 mph 25.3 mph N/A   Clear
9:35 PM 36.5 °F 27.0 °F 27.3 °F 69% 30.10 in 10.0 mi North 16.1 mph 25.3 mph N/A   Clear
9:55 PM 36.7 °F 28.0 °F 26.8 °F 67% 30.11 in 10.0 mi NNW 13.8 mph 26.5 mph N/A   Clear
10:15 PM 36.1 °F 28.2 °F 26.1 °F 67% 30.11 in 10.0 mi NNW 11.5 mph 20.7 mph N/A   Clear
10:35 PM 35.4 °F 28.4 °F 25.3 °F 67% 30.12 in 10.0 mi North 9.2 mph - N/A   Clear
10:55 PM 35.8 °F 26.5 °F 24.6 °F 64% 30.11 in 10.0 mi NW 15.0 mph 25.3 mph N/A   Clear
11:15 PM 34.7 °F 25.5 °F 24.3 °F 66% 30.11 in 10.0 mi NW 13.8 mph 18.4 mph N/A   Clear
11:35 PM 34.7 °F 25.1 °F 23.7 °F 64% 30.11 in 10.0 mi WNW 15.0 mph 18.4 mph N/A   Clear
11:55 PM 34.2 °F 25.2 °F 23.5 °F 65% 30.12 in 10.0 mi NNW 12.7 mph 17.3 mph N/A   Clear